[[{"header":{"parameterUnit":"m.s-1","parameterCategory":1,"la1":30.2991,"la2":30.254,"lo1":-89.0895,"lo2":-89.0444,"dy":0.0017,"dx":0.0017,"nx":28,"ny":28,"refTime":"2024-08-29T21:00:00:Z","depth":0,"parameterNumber":2,"parameterNumberName":"U-component_of_WINDS"},"data":[0,0,0,0,0,0,0,0,0,0,0,0,0,0,0,0,0,0,0,0,0,0,0,0,0,0,0,0,0,0,0,0,0,0,0,0,0,0,0,0,0,0,0,0,0,0,0,0,0,0,0,0,0,0,0,0,0,0,-2.4684,-2.4685,0,-2.4835,-2.4836,-2.4838,-2.4869,-2.4868,-2.4866,-2.4865,-2.5021,-2.5026,-2.5031,0,0,0,0,0,0,0,0,0,0,0,0,0,-2.4422,-2.4427,-2.4683,-2.4685,-2.4687,-2.4834,-2.4836,-2.4839,-2.4869,-2.4868,-2.4866,-2.4865,-2.5019,-2.5026,-2.5032,0,0,0,0,0,0,0,0,0,0,0,0,0,-2.4551,-2.4428,-2.4683,-2.472,-2.4725,-2.4834,-2.4837,-2.4839,-2.4869,-2.4868,-2.4866,-2.4864,-2.5017,-2.5025,-2.5033,-2.5116,0,0,-2.5057,-2.506,0,0,0,0,0,0,0,0,-2.4543,-2.456,-2.4713,-2.4718,-2.4723,-2.4831,-2.4802,-2.4932,-2.487,-2.4815,-2.4865,-2.4863,-2.4959,-2.4972,-2.5004,-2.5123,-2.513,-2.5057,-2.5062,-2.5065,-2.5068,0,0,0,0,0,0,0,-2.4534,-2.4554,-2.4743,-2.4715,-2.4721,-2.473,-2.4746,-2.4826,-2.4895,-2.4819,-2.4822,-2.4839,-2.4962,-2.4996,-2.5008,-2.5132,-2.5057,-2.5064,-2.5069,-2.5072,-2.5327,-2.5328,0,0,0,0,0,0,-2.4519,-2.4546,-2.4739,-2.4748,-2.4627,-2.4736,-2.4754,-2.4798,-2.4894,-2.4907,-2.484,-2.484,-2.4984,-2.4999,-2.5014,-2.5117,-2.5065,-2.5073,-2.5077,-2.5325,-2.5327,-2.5329,0,0,0,0,0,0,-2.4513,-2.4536,-2.4732,-2.4648,-2.4674,-2.4742,-2.4792,-2.4802,-2.4837,-2.491,-2.4923,-2.4863,-2.4983,-2.5002,-2.509,-2.5122,-2.5076,-2.5083,-2.5322,-2.5325,-2.5328,-2.5323,0,0,0,0,0,0,-2.4506,-2.4533,-2.4566,-2.4648,-2.4678,-2.4806,-2.4794,-2.4806,-2.485,-2.4851,-2.4935,-2.4947,-2.4983,-2.5078,-2.5098,-2.5132,-2.509,-2.5319,-2.5323,-2.5327,-2.5321,-2.5326,-2.533,0,0,0,0,0,-2.4496,-2.4559,-2.4567,-2.459,-2.4719,-2.4808,-2.4825,-2.4865,-2.4852,-2.4885,-2.4933,-2.4944,-2.5116,-2.5087,-2.5109,-2.5147,-2.5318,-2.5322,-2.5327,-2.5319,-2.5325,-2.533,0,0,0,0,0,0,-2.4479,-2.457,-2.4581,-2.4672,-2.4732,-2.4813,-2.4856,-2.487,-2.4936,-2.4934,-2.4981,-2.5,-2.5084,-2.5125,-2.5091,-2.5232,-2.5216,-2.5225,-2.5202,-2.5209,-2.5213,-2.5201,-2.5096,0,0,0,0,0,-2.4485,-2.4549,-2.4626,-2.4699,-2.4728,-2.4787,-2.4827,-2.4853,-2.4917,-2.4942,-2.4996,-2.5058,-2.5126,-2.517,-2.5237,-2.5327,-2.5346,-2.5364,-2.5369,-2.5372,-2.5379,-2.543,-2.5438,-2.5344,-2.5344,-2.5344,0,0,-2.45,-2.4558,-2.4595,-2.4697,-2.4746,-2.4811,-2.4808,-2.4877,-2.4926,-2.4953,-2.5039,-2.508,-2.5153,-2.5242,-2.5284,-2.5278,-2.5409,-2.5378,-2.538,-2.5386,-2.5435,-2.5444,-2.5452,-2.5348,-2.5347,-2.5346,0,0,-2.4559,-2.461,-2.4676,-2.4725,-2.48,-2.4838,-2.4854,-2.4933,-2.4962,-2.5048,-2.507,-2.5129,-2.5245,-2.5295,-2.5336,-2.5414,-2.5427,-2.5435,-2.5459,-2.5507,-2.5515,-2.5521,-2.5549,-2.5558,-2.5442,-2.5442,-2.5442,0,-2.4568,-2.4667,-2.4708,-2.4776,-2.482,-2.4847,-2.4914,-2.496,-2.5053,-2.5083,-2.5075,-2.5221,-2.5272,-2.5373,-2.5392,-2.5424,-2.5444,-2.5425,-2.551,-2.5517,-2.5524,-2.5551,-2.5561,-2.5443,-2.5442,-2.5442,-2.5442,0,-2.4673,-2.4741,-2.4786,-2.4874,-2.4923,-2.499,-2.5042,-2.5087,-2.5108,-2.5147,-2.5235,-2.5297,-2.5376,-2.5402,-2.5424,-2.5506,-2.55,-2.5501,-2.5485,-2.5533,-2.5558,-2.5569,-2.5443,-2.5443,-2.5443,-2.5443,0,0,-2.4726,-2.4835,-2.4851,-2.4891,-2.4975,-2.5029,-2.5097,-2.5174,-2.5211,-2.5275,-2.5333,-2.543,-2.5431,-2.5478,-2.5506,-2.5548,-2.5605,-2.5544,-2.5546,-2.5552,-2.5699,-2.5697,-2.5708,-2.5615,-2.5617,-2.5618,-2.5692,0,-2.4795,-2.4917,-2.4956,-2.5058,-2.5121,-2.5148,-2.5208,-2.5266,-2.5304,-2.5364,-2.5406,-2.5474,-2.5471,-2.5499,-2.5542,-2.5589,-2.5635,-2.5584,-2.5669,-2.5672,-2.5649,-2.5721,-2.572,-2.5787,-2.5703,-2.5704,-2.5706,0,-2.4892,-2.4956,-2.5064,-2.5139,-2.5167,-2.522,-2.5293,-2.535,-2.5416,-2.5441,-2.5492,-2.5517,-2.559,-2.5571,-2.5671,-2.5636,-2.5673,-2.5701,-2.5705,-2.5713,-2.5691,-2.5731,-2.5809,-2.5819,-2.5722,-2.5721,-2.5719,0,-2.4918,-2.5031,-2.511,-2.5144,-2.5234,-2.527,-2.531,-2.5375,-2.5418,-2.5483,-2.5511,-2.5583,-2.5623,-2.5678,-2.5721,-2.5704,-2.5818,-2.5803,-2.584,-2.5839,-2.5862,-2.586,-2.5946,-2.5888,-2.5887,-2.5887,-2.5887,0,-2.4991,-2.5056,-2.5123,-2.5172,-2.5245,-2.5289,-2.5361,-2.5402,-2.5459,-2.5516,-2.5544,-2.5597,-2.5652,-2.5712,-2.5746,-2.5824,-2.5842,-2.5864,-2.5872,-2.5861,-2.5858,-2.5885,-2.5881,-2.589,-2.5889,-2.5889,-2.5888,0,-2.5033,-2.5081,-2.5168,-2.5246,-2.5267,-2.5318,-2.5385,-2.5433,-2.5472,-2.5544,-2.5563,-2.5625,-2.5698,-2.5746,-2.5839,-2.5862,-2.5946,-2.5954,-2.5923,-2.5927,-2.5961,-2.5957,-2.6067,-2.6084,-2.6015,-2.6015,-2.6016,0,-2.5076,-2.5126,-2.5209,-2.5248,-2.5288,-2.5352,-2.5396,-2.5442,-2.5487,-2.5566,-2.5604,-2.5678,-2.574,-2.5854,-2.5908,-2.5979,-2.5988,-2.6021,-2.5999,-2.5985,-2.5987,-2.5983,-2.5988,-2.6025,-2.6025,-2.6026,-2.6026,0,-2.5146,-2.5167,-2.5229,-2.53,-2.5352,-2.541,-2.5468,-2.5499,-2.5555,-2.5604,-2.5678,-2.5725,-2.582,-2.5893,-2.5968,-2.6009,-2.6027,-2.6033,-2.6045,-2.6034,-2.6014,-2.6024,-2.5932,-2.603,-2.603,-2.6029,-2.6029,-2.6029,-2.519,-2.5235,-2.53,-2.5369,-2.5417,-2.547,-2.5519,-2.5564,-2.5626,-2.5706,-2.5729,-2.5806,-2.5871,-2.5974,-2.6016,-2.6077,-2.6074,-2.6092,-2.6096,-2.61,-2.6099,-2.6004,-2.6091,-2.6091,-2.6091,-2.6091,-2.6091,0,-2.5261,-2.5304,-2.5366,-2.5446,-2.55,-2.5511,-2.5576,-2.562,-2.5687,-2.5746,-2.5805,-2.589,-2.596,-2.6019,-2.6092,-2.6129,-2.6139,-2.6147,-2.6144,-2.6153,-2.6099,-2.608,-2.6138,-2.6138,-2.6138,-2.6138,-2.6138,-2.6138,-2.5304,-2.5382,-2.541,-2.5512,-2.5555,-2.5629,-2.5665,-2.5714,-2.5761,-2.5854,-2.5912,-2.595,-2.6009,-2.6086,-2.6152,-2.6167,-2.6192,-2.6198,-2.6215,-2.6163,-2.6157,-2.6152,-2.6135,-2.6203,-2.6203,-2.6265,-2.6265,-2.6266]},{"header":{"parameterUnit":"m.s-1","parameterCategory":1,"la1":30.2991,"la2":30.254,"lo1":-89.0895,"lo2":-89.0444,"dy":0.0017,"dx":0.0017,"nx":28,"ny":28,"refTime":"2024-08-29T21:00:00:Z","depth":0,"parameterNumber":3,"parameterNumberName":"V-component_of_WINDS"},"data":[0,0,0,0,0,0,0,0,0,0,0,0,0,0,0,0,0,0,0,0,0,0,0,0,0,0,0,0,0,0,0,0,0,0,0,0,0,0,0,0,0,0,0,0,0,0,0,0,0,0,0,0,0,0,0,0,0,0,2.9031,2.9031,0,2.9097,2.9097,2.9098,2.9051,2.9049,2.9047,2.9045,2.9112,2.9116,2.912,0,0,0,0,0,0,0,0,0,0,0,0,0,2.8863,2.8866,2.9031,2.9031,2.9032,2.9096,2.9097,2.9098,2.9051,2.9049,2.9046,2.9044,2.9111,2.9116,2.912,0,0,0,0,0,0,0,0,0,0,0,0,0,2.8933,2.8867,2.903,2.9017,2.9016,2.9096,2.9097,2.9099,2.9052,2.9049,2.9046,2.9043,2.911,2.9115,2.9121,2.9218,0,0,2.9138,2.914,0,0,0,0,0,0,0,0,2.8929,2.8939,2.9018,2.9018,2.9017,2.9062,2.9063,2.9139,2.9053,2.9038,2.9045,2.9041,2.9098,2.9105,2.9124,2.9221,2.9224,2.9138,2.9142,2.9144,2.9146,0,0,0,0,0,0,0,2.8924,2.8936,2.9057,2.9019,2.9019,2.9007,2.9013,2.9077,2.9085,2.9039,2.9036,2.9045,2.9098,2.9119,2.9125,2.9225,2.9138,2.9143,2.9147,2.9149,2.9403,2.9406,0,0,0,0,0,0,2.8921,2.8932,2.9055,2.9059,2.8964,2.9012,2.9019,2.9051,2.9084,2.9086,2.9047,2.9042,2.9111,2.9119,2.9127,2.9242,2.9144,2.9149,2.9153,2.94,2.9404,2.9408,0,0,0,0,0,0,2.8917,2.8932,2.9052,2.8995,2.9009,2.9018,2.9054,2.9054,2.9075,2.909,2.9091,2.9067,2.9108,2.9119,2.9195,2.9243,2.9152,2.9157,2.9396,2.9401,2.9406,2.9472,0,0,0,0,0,0,2.8913,2.8931,2.8969,2.8996,2.9012,2.912,2.9057,2.9058,2.9085,2.9079,2.9109,2.9111,2.9107,2.9187,2.9201,2.925,2.9162,2.9392,2.9398,2.9404,2.9466,2.9479,2.949,0,0,0,0,0,2.8907,2.8985,2.8971,2.8986,2.9059,2.9122,2.9132,2.9125,2.9089,2.9126,2.9136,2.911,2.9236,2.9195,2.9211,2.9261,2.9389,2.9396,2.9404,2.946,2.9477,2.949,0,0,0,0,0,0,2.8964,2.8989,2.8973,2.9063,2.9091,2.9114,2.9161,2.9143,2.9181,2.9174,2.9164,2.9171,2.925,2.9264,2.9218,2.9356,2.9307,2.9318,2.9344,2.936,2.9372,2.9366,2.9166,0,0,0,0,0,2.8987,2.9037,2.9055,2.9133,2.9147,2.9152,2.9179,2.9171,2.92,2.9212,2.9227,2.9256,2.9301,2.9331,2.9375,2.9468,2.9473,2.951,2.9522,2.9532,2.9542,2.959,2.9606,2.9433,2.9433,2.9432,0,0,2.9036,2.9055,2.9087,2.9145,2.9165,2.9216,2.9163,2.9219,2.9256,2.922,2.9292,2.9304,2.9335,2.942,2.9458,2.9433,2.9591,2.9542,2.955,2.9554,2.9599,2.9616,2.963,2.9438,2.9437,2.9436,0,0,2.9149,2.9169,2.9235,2.9256,2.9288,2.929,2.9306,2.9333,2.9339,2.9411,2.9385,2.9429,2.9508,2.9531,2.9553,2.9673,2.965,2.9687,2.975,2.9797,2.9811,2.9823,2.9864,2.9879,2.9696,2.9697,2.9697,0,2.9205,2.928,2.9271,2.9329,2.9354,2.9324,2.9389,2.9411,2.9455,2.9473,2.9445,2.9543,2.9562,2.965,2.9679,2.9698,2.9715,2.9683,2.981,2.9822,2.9833,2.9872,2.9887,2.9701,2.97,2.97,2.9699,0,2.9346,2.9398,2.9447,2.949,2.9521,2.9583,2.9582,2.9615,2.9604,2.9609,2.9681,2.9703,2.9749,2.9769,2.976,2.9856,2.9839,2.9811,2.9761,2.9854,2.989,2.9905,2.9707,2.9705,2.9704,2.9703,0,0,2.9498,2.9533,2.9551,2.9569,2.9601,2.9642,2.9701,2.9745,2.9772,2.9804,2.9852,2.992,2.9893,2.9918,2.991,2.9952,3.0043,2.9918,2.9918,2.9939,3.0147,3.0167,3.0185,3.0028,3.0031,3.0034,3.0144,0,2.9611,2.9714,2.9707,2.9804,2.9851,2.9822,2.9874,2.9898,2.9904,2.9945,2.9951,2.9998,2.9961,2.9975,3.0015,3.0023,3.0084,3.0015,3.0072,3.0074,3.0064,3.0204,3.0226,3.0329,3.0158,3.0161,3.0163,0,2.9757,2.9792,2.9894,2.9917,2.9936,2.9983,3.0021,3.0061,3.0088,3.0089,3.0116,3.0102,3.016,3.0109,3.0189,3.0142,3.0165,3.0173,3.0177,3.0181,3.0123,3.021,3.0363,3.0377,3.0185,3.0183,3.0182,0,2.9855,2.9928,2.9997,3.0014,3.0043,3.0076,3.009,3.0114,3.014,3.0174,3.0191,3.0232,3.0254,3.0286,3.0282,3.0245,3.0362,3.0312,3.0364,3.0364,3.0389,3.0387,3.0545,3.0406,3.0406,3.0406,3.0406,0,2.9981,3.0044,3.0041,3.0084,3.0153,3.0144,3.0212,3.0222,3.0243,3.0286,3.0265,3.0306,3.0299,3.034,3.0337,3.0402,3.0413,3.0415,3.0413,3.0416,3.0416,3.043,3.0422,3.041,3.0409,3.0408,3.0408,0,3.0102,3.0103,3.0176,3.0197,3.0204,3.0254,3.0271,3.0311,3.0315,3.037,3.0382,3.0388,3.0435,3.0434,3.0488,3.0486,3.0566,3.0557,3.0556,3.0554,3.0606,3.06,3.0777,3.0799,3.0648,3.0649,3.065,0,3.0182,3.0229,3.0255,3.0282,3.0297,3.0342,3.0368,3.0361,3.0389,3.0423,3.0458,3.0503,3.0538,3.0614,3.0622,3.0663,3.0654,3.0713,3.0659,3.066,3.0652,3.0649,3.0653,3.0723,3.0725,3.0726,3.0727,0,3.0323,3.0321,3.036,3.0398,3.043,3.0461,3.0488,3.0512,3.0507,3.054,3.0587,3.0615,3.0669,3.0713,3.0751,3.0764,3.0745,3.0744,3.0758,3.0761,3.0758,3.0758,3.0583,3.074,3.0738,3.0737,3.0737,3.0736,3.0425,3.0464,3.0488,3.0531,3.0551,3.0577,3.0615,3.0623,3.0662,3.0705,3.0698,3.0751,3.0775,3.0824,3.0841,3.0881,3.086,3.0881,3.0886,3.0891,3.0896,3.0752,3.0889,3.0888,3.0888,3.0888,3.0887,0,3.0563,3.0576,3.0616,3.0655,3.0689,3.0667,3.0697,3.0726,3.0772,3.0797,3.0831,3.0884,3.0927,3.0938,3.0979,3.1009,3.1,3.1019,3.1016,3.1019,3.0913,3.0896,3.1025,3.1025,3.1025,3.1025,3.1025,3.1025,3.0639,3.0704,3.0704,3.0779,3.0792,3.0842,3.086,3.0884,3.0903,3.0963,3.0998,3.1005,3.1024,3.1065,3.1102,3.1104,3.112,3.1142,3.1141,3.1041,3.1027,3.1014,3.0998,3.1146,3.1146,3.1243,3.1244,3.1245]}]]